Location: Brivio
(45.7333°N, 9.4500°E)
Time: 13:49:55
(UTC+00:00)

STARLINK-46 - Pass Details

Date: 18 October 2019
Orbit: 357 x 393 km, 53.0° (Epoch: 13 November)

Event Time Altitude Azimuth Distance (km) Brightness Sun altitude
Rises 18:09:51 0° 300° (WNW) 2,245 7.9 -17.8°
Maximum altitude 18:15:00 70° 215° (SW) 412 3.0 -18.7°
Enters shadow 18:15:19 62° 169° (S) 435 2.9 -18.8°
